Terminal Aerodrome Forecast
Issued by NWS St Louis, MO

Home | Current Version | Previous Version | Text Only | Print | Product List | Glossary On
Versions: 1 2 3 4 5 6 7 8 9 10 11 12 13 14 15 16 17 18 19 20 21 22 23 24 25 26 27 28
000
FTUS43 KLSX 262100 AAB
TAFSTL
TAF AMD
KSTL 262155Z 2622/2724 29012KT P6SM VCSH SCT100 OVC150
     FM270200 20008KT P6SM SCT200
     FM271200 30012KT P6SM SCT040=

USA.gov is the U.S. government's official web portal to all federal, state and local government web resources and services.